Wind_Speed
33 33 33 34 34 34 34 35 36 34 34 31 33 33 34 34 33 33 34 34 35 36 36 37 38 38 39 40 40 41 42 42 43 43 43 44 44 44 44 44 44 44 44 44
34 34 34 34 34 35 36 36 36 35 33 31 33 34 35 35 35 34 34 34 35 36 37 37 37 38 39 40 40 41 40 41 42 42 43 43 43 44 44 43 43 44 44 44
34 33 34 34 33 35 36 36 36 35 33 33 34 34 35 35 36 36 35 35 35 35 35 36 36 36 38 39 40 40 40 41 41 42 42 42 42 43 42 42 42 42 43 43
34 33 35 32 32 33 34 34 35 34 33 33 33 34 34 34 34 35 36 36 35 35 35 35 35 35 37 38 39 40 40 40 41 41 42 42 42 42 42 42 42 42 41 41
34 35 35 32 31 31 33 32 32 33 32 33 33 34 33 34 34 35 36 36 35 35 35 34 35 35 36 38 38 39 40 40 40 41 41 41 41 41 41 41 41 41 41 40
34 35 34 31 31 31 33 32 31 31 31 32 32 33 32 32 32 33 34 34 34 34 35 35 35 36 36 36 37 38 39 40 40 40 41 41 40 40 40 41 41 41 40 40
32 33 32 30 30 30 32 31 30 30 31 32 31 31 31 31 30 31 32 33 33 33 33 33 33 35 35 35 35 36 37 38 39 39 39 39 39 39 39 39 40 40 41 41
29 30 29 28 28 29 30 30 30 30 30 31 31 31 31 30 29 29 30 31 32 32 31 32 33 33 33 33 34 34 35 36 38 38 38 38 38 38 39 39 39 40 40 40
29 28 27 27 28 28 29 29 29 29 29 29 29 29 30 29 28 28 29 29 29 30 30 31 31 31 31 32 33 33 34 34 35 36 37 38 38 38 39 39 38 38 39 39
28 27 27 27 27 28 28 29 28 29 28 28 28 28 27 28 28 28 28 28 28 29 29 30 31 31 31 31 31 32 32 33 33 34 35 36 37 37 38 38 38 38 38 38
27 27 27 27 27 27 27 27 27 27 27 27 27 26 26 26 26 26 27 28 28 29 29 29 30 31 31 31 31 31 31 31 32 33 33 33 34 35 36 37 37 36 36 37
26 26 27 26 27 27 27 27 27 26 26 26 26 26 26 26 27 27 27 28 27 27 27 27 28 29 29 30 31 31 30 30 30 30 31 31 32 32 33 35 35 35 35 35
26 26 26 25 26 26 27 27 26 26 26 26 26 26 26 26 27 28 27 26 26 26 26 26 27 27 27 29 29 29 29 29 29 29 29 30 30 31 31 32 32 32 32 32
26 26 25 25 25 25 27 27 26 27 27 28 28 28 28 27 27 27 27 26 26 26 26 26 25 25 27 27 28 28 28 28 28 28 29 29 29 29 30 30 30 30 30 30
27 26 26 26 26 26 26 26 27 27 28 28 29 28 28 27 26 27 27 26 26 25 25 25 25 25 26 26 26 27 27 28 28 28 28 28 28 28 29 29 29 29 29 29
27 27 27 26 26 26 26 26 27 26 26 27 27 27 27 26 25 26 26 26 25 25 25 25 25 26 26 26 27 27 27 28 28 28 28 28 28 29 29 29 28 28 28 27
27 27 27 26 26 25 26 26 26 26 26 27 27 26 26 25 25 25 26 26 25 25 25 25 26 26 27 27 28 28 28 28 28 28 28 29 29 28 28 28 28 27 27 27
27 26 26 26 26 25 25 25 25 25 25 25 25 26 26 26 26 26 26 26 26 26 26 26 26 27 27 27 28 28 29 29 29 29 29 28 28 27 27 27 27 27 27 27
26 25 25 25 25 25 25 25 25 25 24 24 24 25 25 26 26 26 27 27 27 27 26 26 27 27 27 27 28 28 29 29 29 28 28 28 28 28 27 27 27 27 28 28
25 24 24 24 24 24 25 25 25 24 25 25 25 25 25 25 25 25 26 26 26 26 26 26 26 26 27 27 28 28 28 28 28 28 28 28 28 28 28 28 28 28 28 28
23 23 23 23 23 23 23 23 23 23 23 24 24 24 24 24 24 24 24 25 26 26 27 27 27 27 28 28 29 29 28 28 28 28 28 28 27 27 27 27 27 27 27 27
22 22 22 21 21 21 21 21 21 21 22 22 23 23 23 23 23 23 24 25 25 26 26 27 27 27 27 28 27 27 27 27 27 27 26 26 26 26 26 26 26 26 26 26
20 20 21 21 21 20 20 20 20 20 20 21 21 22 22 22 23 23 23 24 24 24 25 25 26 27 27 27 26 26 26 26 26 25 25 25 25 25 24 24 24 24 25 25
19 19 20 20 20 20 20 20 20 20 20 20 21 22 22 22 23 23 23 24 24 25 25 26 27 27 27 26 26 25 25 24 24 24 24 23 23 23 23 23 23 23 23 22
18 18 18 19 19 19 19 20 20 20 20 21 21 22 22 23 23 23 24 24 24 25 25 26 26 26 25 24 23 23 22 22 22 21 21 21 21 21 21 21 21 21 20 20
17 17 17 18 19 19 19 20 20 21 21 22 23 23 23 23 23 24 24 24 24 24 24 24 24 23 23 22 21 21 20 19 19 19 19 19 19 19 19 19 18 18 17 17
17 18 19 19 20 20 20 21 21 21 21 21 22 22 23 23 24 24 24 24 24 23 23 22 22 21 21 20 19 19 18 17 17 17 17 17 17 17 16 16 16 16 16 15
Wind_Direction
273 273 273 271 270 270 271 273 274 275 273 271 269 268 267 267 267 268 266 266 266 266 266 266 266 264 262 261 261 262 262 263 264 264 265 266 267 268 269 269 269 270 270 270
273 273 272 271 270 271 273 274 275 273 272 269 269 268 267 266 266 268 269 269 269 268 268 267 266 265 262 261 261 261 262 263 264 264 265 266 267 268 269 269 269 270 270 270
274 273 272 272 272 271 272 273 273 272 273 270 270 269 268 267 266 266 268 270 271 270 270 269 268 266 263 263 262 261 261 263 264 264 265 266 268 268 269 268 269 270 270 270
274 274 274 274 272 271 272 272 272 272 271 271 269 269 268 268 267 267 268 270 271 271 270 269 268 267 265 263 262 261 261 263 264 265 266 267 267 268 268 268 268 270 271 270
275 276 276 275 274 274 274 273 272 272 271 271 270 269 268 268 268 267 267 269 270 270 270 269 269 269 268 266 263 262 262 263 264 265 267 267 268 268 267 267 268 269 270 269
276 276 278 278 276 275 275 274 273 274 272 271 271 271 269 268 268 268 268 269 270 270 269 269 270 270 270 269 267 265 264 263 265 265 266 268 269 268 268 268 268 269 269 269
275 276 277 278 278 277 277 278 276 275 274 274 272 273 272 271 270 271 271 270 270 270 270 270 270 270 270 270 269 268 266 265 266 267 268 268 269 268 268 268 269 269 269 269
274 276 277 278 277 277 279 278 277 276 276 274 272 272 272 271 271 272 272 271 272 272 272 271 270 270 270 269 269 269 267 267 267 268 269 269 269 269 269 269 269 269 269 270
272 274 277 279 278 277 277 277 276 276 276 274 272 272 271 269 270 272 271 272 272 271 272 270 269 269 269 270 270 271 269 268 268 269 269 269 269 269 270 270 270 270 270 270
273 274 276 279 279 278 276 276 276 277 275 274 274 272 271 270 270 271 272 272 273 274 274 273 271 271 271 271 271 272 271 271 271 271 271 271 270 269 270 270 270 270 270 271
275 275 276 277 276 276 275 274 275 276 275 274 273 272 272 271 270 271 271 272 273 274 274 274 273 272 271 270 271 272 273 273 273 272 272 272 271 270 269 269 269 270 270 271
277 277 277 277 276 276 274 274 273 274 274 273 272 272 273 273 271 271 272 273 273 274 275 274 273 273 272 271 271 272 274 274 273 273 272 272 272 270 270 269 269 270 271 271
277 277 276 276 275 276 275 275 274 273 273 272 272 273 274 273 273 273 273 274 274 274 276 275 275 274 273 273 273 274 275 275 274 273 273 273 273 272 270 269 270 271 271 271
276 276 275 274 274 275 274 274 273 271 271 271 272 273 273 272 271 271 273 274 276 277 277 277 276 275 274 275 275 275 276 276 276 276 274 274 274 273 271 270 270 271 271 272
274 274 274 275 275 276 275 274 272 271 271 271 271 272 272 271 270 270 272 273 275 277 277 276 275 274 275 275 276 276 276 276 276 277 276 275 275 274 272 271 270 270 271 272
275 274 273 273 274 274 275 274 273 272 273 273 272 272 272 271 270 270 270 271 273 274 276 277 277 277 277 277 278 278 278 278 278 277 276 275 276 275 272 271 270 270 271 271
276 276 274 272 274 275 275 276 274 273 274 273 273 273 273 272 271 270 270 270 271 273 276 279 280 280 279 279 279 280 279 279 277 276 275 275 275 275 273 271 270 269 269 269
277 276 274 274 275 277 277 278 277 275 274 273 272 273 273 273 273 272 272 270 270 272 275 279 281 281 281 281 281 281 280 278 276 275 274 274 274 274 273 271 269 268 268 269
278 276 274 273 275 277 279 279 278 275 274 274 274 275 275 274 274 273 273 272 272 273 276 279 281 282 281 282 283 283 281 280 278 276 274 274 274 273 272 271 269 269 269 269
279 277 274 274 277 278 280 279 277 275 274 274 275 276 276 275 274 275 274 274 273 273 275 279 281 282 282 283 284 285 283 280 277 274 274 273 273 273 272 271 270 270 270 271
277 275 273 273 277 278 279 279 277 275 275 275 276 277 277 276 276 275 274 273 272 273 275 278 281 282 283 284 284 284 283 280 277 275 274 273 273 272 271 271 270 270 270 271
276 275 273 274 277 278 279 280 279 277 276 276 276 278 278 277 277 276 276 274 274 275 276 278 280 282 283 284 284 284 283 280 277 275 274 274 273 272 271 270 271 270 270 271
276 276 275 276 278 279 280 282 283 281 279 278 277 277 278 278 278 279 278 277 276 277 279 281 283 284 285 286 285 284 282 279 277 274 274 274 273 272 271 271 271 271 271 272
276 276 276 277 279 280 281 282 283 282 281 279 279 279 279 280 280 280 279 279 279 280 281 283 285 286 286 286 285 283 281 278 276 274 273 273 272 272 272 272 271 271 271 271
276 276 277 279 281 282 283 284 284 283 282 282 283 282 282 282 281 281 280 280 281 282 283 285 285 285 285 284 283 281 279 277 275 274 273 272 272 273 272 271 271 271 271 269
277 277 279 280 282 283 284 285 286 285 285 285 286 284 284 283 282 282 282 282 282 283 285 285 285 284 284 283 282 279 276 275 273 273 272 271 272 272 272 271 270 269 268 266
279 279 281 284 285 285 286 286 286 286 286 287 287 286 284 283 283 282 283 283 283 285 286 285 284 283 282 282 281 278 275 274 275 274 273 273 272 272 272 270 267 266 265 264
Height
5605 5605 5604 5604 5604 5603 5601 5601 5600 5601 5601 5602 5601 5600 5601 5601 5601 5601 5601 5601 5601 5601 5601 5602 5602 5602 5602 5604 5605 5606 5607 5608 5608 5609 5610 5610 5611 5611 5611 5612 5611 5611 5611 5610
5596 5595 5594 5593 5594 5593 5592 5591 5590 5590 5591 5592 5590 5589 5589 5590 5590 5590 5590 5590 5590 5590 5590 5590 5590 5590 5591 5592 5593 5594 5595 5596 5597 5598 5598 5599 5599 5599 5599 5599 5599 5599 5599 5598
5585 5585 5583 5583 5584 5583 5582 5582 5581 5580 5583 5581 5580 5579 5579 5579 5579 5579 5579 5579 5579 5579 5579 5579 5579 5579 5580 5580 5581 5583 5584 5585 5585 5586 5586 5587 5587 5588 5588 5588 5588 5587 5587 5586
5575 5575 5573 5577 5575 5573 5572 5572 5571 5570 5570 5570 5569 5568 5568 5568 5567 5567 5568 5568 5568 5568 5568 5568 5568 5568 5568 5568 5569 5571 5572 5573 5573 5574 5575 5575 5575 5576 5576 5576 5576 5576 5575 5575
5565 5563 5563 5566 5566 5564 5562 5562 5562 5560 5560 5560 5558 5557 5558 5557 5556 5556 5556 5557 5557 5557 5557 5557 5557 5557 5557 5557 5558 5559 5560 5561 5562 5562 5563 5563 5563 5563 5563 5563 5564 5564 5563 5563
5555 5553 5553 5558 5557 5555 5554 5552 5553 5551 5550 5549 5548 5547 5549 5547 5546 5546 5546 5546 5546 5546 5546 5546 5546 5546 5546 5547 5547 5548 5549 5549 5550 5550 5551 5551 5551 5551 5551 5551 5551 5551 5551 5551
5546 5543 5545 5548 5546 5545 5544 5545 5544 5542 5541 5539 5538 5538 5538 5537 5536 5536 5536 5536 5536 5536 5536 5536 5536 5536 5536 5536 5536 5537 5537 5537 5538 5538 5539 5539 5539 5539 5539 5539 5539 5539 5539 5539
5537 5536 5539 5538 5537 5536 5535 5534 5533 5531 5530 5529 5528 5528 5527 5527 5526 5526 5526 5526 5526 5526 5526 5526 5525 5525 5525 5526 5526 5526 5526 5526 5527 5527 5527 5527 5527 5527 5527 5527 5527 5527 5527 5527
5529 5531 5530 5528 5527 5526 5525 5524 5523 5522 5521 5519 5518 5518 5518 5518 5518 5517 5517 5517 5517 5517 5517 5516 5515 5515 5516 5516 5515 5515 5516 5515 5515 5515 5515 5515 5515 5515 5515 5515 5515 5515 5515 5515
5520 5521 5521 5520 5518 5517 5516 5515 5514 5513 5511 5510 5509 5509 5509 5509 5509 5509 5509 5508 5508 5508 5507 5507 5506 5506 5506 5505 5505 5505 5505 5505 5505 5504 5504 5504 5504 5503 5503 5503 5503 5503 5503 5503
5511 5512 5511 5511 5510 5508 5507 5506 5505 5504 5502 5501 5501 5501 5500 5500 5500 5500 5500 5499 5499 5498 5498 5497 5497 5496 5496 5496 5496 5496 5495 5495 5494 5494 5494 5493 5493 5492 5492 5492 5492 5492 5492 5491
5504 5504 5502 5502 5501 5500 5498 5498 5496 5495 5494 5493 5493 5493 5492 5492 5491 5491 5491 5490 5490 5489 5489 5488 5487 5487 5486 5486 5486 5486 5485 5485 5484 5484 5483 5483 5482 5482 5481 5481 5480 5480 5480 5480
5495 5494 5493 5493 5492 5491 5490 5489 5488 5487 5486 5485 5485 5484 5484 5483 5483 5482 5482 5482 5481 5481 5480 5479 5478 5478 5477 5477 5476 5476 5476 5475 5475 5474 5473 5473 5472 5472 5471 5471 5470 5469 5469 5469
5486 5485 5484 5484 5483 5482 5481 5480 5479 5478 5477 5477 5476 5476 5475 5475 5474 5474 5473 5473 5473 5472 5471 5471 5470 5469 5469 5468 5468 5467 5467 5466 5465 5464 5464 5463 5462 5462 5461 5461 5460 5460 5459 5459
5477 5476 5475 5475 5474 5473 5472 5471 5470 5469 5469 5468 5467 5467 5466 5466 5465 5465 5465 5465 5464 5463 5463 5462 5462 5461 5460 5460 5459 5458 5458 5457 5456 5455 5454 5454 5453 5452 5451 5451 5451 5451 5450 5450
5468 5467 5466 5466 5465 5464 5463 5462 5461 5461 5460 5459 5459 5458 5457 5457 5457 5456 5456 5456 5456 5455 5455 5454 5454 5453 5452 5451 5450 5450 5449 5448 5447 5446 5445 5444 5444 5443 5442 5442 5442 5441 5441 5441
5459 5459 5458 5457 5457 5456 5455 5454 5453 5452 5451 5451 5450 5449 5449 5449 5448 5448 5448 5448 5448 5447 5447 5447 5446 5445 5444 5443 5442 5441 5440 5439 5438 5437 5436 5435 5435 5434 5433 5433 5433 5433 5432 5432
5451 5450 5449 5449 5448 5447 5446 5445 5444 5443 5443 5442 5442 5441 5441 5441 5440 5440 5440 5440 5439 5439 5439 5438 5437 5436 5435 5434 5433 5432 5431 5430 5429 5428 5427 5426 5425 5425 5424 5424 5424 5424 5424 5423
5442 5442 5441 5440 5440 5439 5438 5437 5436 5435 5435 5434 5434 5433 5432 5432 5432 5432 5431 5431 5431 5431 5431 5430 5429 5428 5426 5425 5424 5423 5422 5420 5419 5418 5418 5417 5416 5416 5415 5415 5415 5415 5415 5415
5434 5433 5433 5432 5432 5431 5430 5429 5428 5427 5427 5426 5426 5425 5424 5424 5423 5423 5423 5422 5422 5422 5422 5421 5420 5419 5418 5417 5415 5414 5412 5411 5410 5409 5408 5408 5407 5407 5406 5406 5406 5406 5406 5405
5426 5426 5425 5424 5424 5423 5422 5421 5420 5419 5419 5418 5418 5417 5416 5416 5415 5415 5414 5414 5414 5413 5413 5412 5411 5410 5409 5408 5406 5405 5403 5402 5401 5400 5399 5399 5398 5398 5397 5397 5397 5397 5396 5396
5419 5418 5417 5417 5416 5416 5415 5414 5413 5412 5411 5410 5410 5409 5409 5408 5407 5407 5406 5406 5405 5404 5404 5403 5402 5401 5400 5398 5397 5395 5394 5393 5392 5391 5390 5390 5389 5389 5388 5388 5388 5388 5387 5387
5411 5411 5410 5410 5409 5409 5408 5407 5406 5405 5404 5403 5403 5402 5401 5400 5400 5399 5398 5397 5396 5396 5395 5394 5393 5392 5390 5389 5387 5386 5385 5384 5383 5382 5382 5381 5381 5380 5380 5380 5379 5379 5378 5378
5405 5404 5404 5403 5403 5402 5401 5400 5399 5398 5397 5396 5395 5394 5394 5393 5392 5391 5390 5389 5388 5387 5386 5385 5384 5382 5381 5380 5378 5377 5376 5375 5374 5374 5373 5372 5372 5372 5372 5371 5371 5370 5370 5369
5399 5398 5398 5397 5396 5396 5395 5394 5392 5391 5390 5389 5388 5387 5386 5385 5384 5383 5382 5381 5379 5378 5377 5376 5374 5373 5372 5371 5370 5369 5368 5367 5366 5366 5365 5365 5364 5364 5364 5363 5363 5362 5362 5362
5393 5392 5392 5391 5390 5389 5388 5387 5386 5384 5383 5382 5380 5379 5378 5377 5376 5375 5373 5372 5371 5370 5368 5367 5366 5365 5364 5363 5362 5361 5360 5360 5359 5359 5358 5358 5357 5357 5357 5356 5356 5355 5355 5355
5387 5387 5386 5385 5384 5382 5381 5380 5379 5377 5376 5374 5373 5371 5370 5369 5367 5366 5365 5364 5363 5362 5360 5359 5358 5357 5356 5355 5354 5354 5353 5353 5352 5352 5352 5351 5351 5351 5350 5350 5350 5350 5350 5350